FW0150 Weather Reports


Display with metric or nautical units.
time (UTC)temp
F
wind
direction
speed
MPH
gust
MPH
rain 1hr
in
rain 24hr
in
rain mn
in
humidity
%
barometer
mb
20260507210704 60 8 5.0 7.0 0.00 0.09 0.09 76 1013.9
20260507210206 60 350 6.0 7.0 0.00 0.09 0.09 75 1013.9
20260507205718 60 350 5.0 6.0 0.00 0.09 0.09 74 1013.9
20260507204649 60 344 6.0 9.0 0.00 0.09 0.09 75 1013.9
20260507204148 60 347 6.0 7.0 0.00 0.09 0.09 74 1013.9
20260507203637 60 355 6.0 7.0 0.00 0.09 0.09 73 1013.8
20260507203135 60 357 5.0 6.0 0.00 0.09 0.09 73 1013.8
20260507202638 60 351 5.0 6.0 0.00 0.09 0.09 73 1013.8
20260507202130 60 354 4.0 4.0 0.00 0.09 0.09 74 1013.8
20260507201624 61 37 2.0 5.0 0.00 0.09 0.09 73 1013.9
20260507201132 61 18 4.0 5.0 0.00 0.09 0.09 71 1013.8
20260507200613 61 355 4.0 5.0 0.00 0.09 0.09 72 1013.8
20260507195606 61 343 4.0 6.0 0.00 0.09 0.09 72 1013.8
20260507195057 62 345 4.0 6.0 0.00 0.09 0.09 72 1013.7
20260507194632 62 345 4.0 5.0 0.00 0.09 0.09 71 1013.8
20260507193544 62 343 4.0 5.0 0.00 0.09 0.09 69 1013.7
20260507193047 62 11 3.0 5.0 0.00 0.09 0.09 68 1013.7
20260507192549 62 0 4.0 4.0 0.00 0.09 0.09 68 1013.6
20260507192048 63 336 1.0 3.0 0.00 0.09 0.09 68 1013.6
20260507191546 63 323 2.0 4.0 0.00 0.09 0.09 69 1013.7
20260507191038 63 336 2.0 4.0 0.00 0.09 0.09 68 1013.6
20260507190538 64 336 1.0 4.0 0.00 0.09 0.09 67 1013.6
20260507185530 64 353 5.0 5.0 0.00 0.09 0.09 66 1013.6
20260507185034 64 345 4.0 6.0 0.00 0.09 0.09 66 1013.5
20260507184533 64 341 4.0 6.0 0.00 0.09 0.09 66 1013.5
20260507184033 64 340 4.0 6.0 0.00 0.09 0.09 66 1013.5
20260507183530 65 350 4.0 5.0 0.00 0.10 0.09 66 1013.6
20260507183030 65 343 4.0 5.0 0.00 0.10 0.09 66 1013.6
20260507182502 65 353 4.0 4.0 0.00 0.12 0.09 64 1013.6
20260507182004 65 357 4.0 4.0 0.00 0.12 0.09 64 1013.6
20260507181502 65 358 4.0 4.0 0.00 0.12 0.09 64 1013.7
20260507181003 65 358 3.0 4.0 0.00 0.12 0.09 64 1013.7
20260507180501 66 355 3.0 4.0 0.00 0.12 0.09 63 1013.6
20260507175954 66 354 2.0 3.0 0.00 0.12 0.09 63 1013.6
20260507175501 66 344 2.0 2.0 0.00 0.12 0.09 63 1013.6
20260507174957 66 331 1.0 2.0 0.00 0.12 0.09 62 1013.6
20260507174457 67 327 0.0 2.0 0.00 0.12 0.09 62 1013.5
20260507173950 67 355 0.0 2.0 0.00 0.12 0.09 62 1013.5
20260507173448 68 354 2.0 3.0 0.00 0.12 0.09 61 1013.5
20260507172943 69 350 2.0 3.0 0.00 0.12 0.09 60 1013.4
20260507172445 69 330 1.0 4.0 0.00 0.12 0.09 61 1013.4
20260507171941 69 307 2.0 4.0 0.00 0.12 0.09 60 1013.3
20260507171453 70 1 1.0 3.0 0.00 0.12 0.09 60 1013.3
20260507170942 70 343 1.0 3.0 0.00 0.12 0.09 60 1013.4
20260507170444 70 288 1.0 4.0 0.00 0.12 0.09 60 1013.3
20260507165946 70 20 2.0 4.0 0.00 0.12 0.09 59 1013.3
20260507165442 70 0 2.0 3.0 0.00 0.12 0.09 58 1013.3
20260507164941 70 348 2.0 4.0 0.00 0.12 0.09 57 1013.3
20260507164444 70 344 3.0 6.0 0.00 0.12 0.09 57 1013.4
20260507163947 70 306 1.0 7.0 0.00 0.12 0.09 59 1013.3
20260507163428 70 353 5.0 7.0 0.00 0.12 0.09 57 1013.2
20260507162921 71 286 1.0 4.0 0.00 0.12 0.09 57 1013.2
20260507162425 70 324 1.0 5.0 0.00 0.12 0.09 57 1013.2
20260507161919 70 337 3.0 5.0 0.00 0.12 0.09 56 1013.2
20260507161414 71 13 2.0 6.0 0.00 0.12 0.09 54 1013.3
20260507160914 71 351 2.0 6.0 0.00 0.12 0.09 55 1013.2
20260507160401 72 357 2.0 4.0 0.00 0.12 0.09 55 1013.2
20260507155901 72 271 0.0 2.0 0.00 0.12 0.09 55 1013.3
20260507155357 71 250 1.0 2.0 0.00 0.12 0.09 55 1013.2
20260507154351 71 86 2.0 3.0 0.00 0.12 0.09 55 1013.3
20260507153847 71 200 0.0 3.0 0.00 0.12 0.09 53 1013.4
20260507153343 71 171 1.0 4.0 0.00 0.12 0.09 55 1013.4
20260507152842 71 353 2.0 4.0 0.00 0.12 0.09 54 1013.3
20260507152345 70 99 0.0 4.0 0.00 0.12 0.09 56 1013.4
20260507151838 71 14 3.0 4.0 0.00 0.12 0.09 55 1013.5
20260507151337 71 354 2.0 3.0 0.00 0.12 0.09 56 1013.4
20260507150833 70 323 1.0 3.0 0.00 0.12 0.09 58 1013.4
20260507150330 70 265 1.0 3.0 0.00 0.12 0.09 59 1013.4
20260507145822 69 275 2.0 4.0 0.00 0.12 0.09 58 1013.4
20260507145319 69 286 2.0 4.0 0.00 0.12 0.09 59 1013.5
20260507144821 69 306 2.0 3.0 0.00 0.12 0.09 60 1013.5
20260507144318 69 279 3.0 3.0 0.00 0.12 0.09 58 1013.5
20260507143807 69 326 1.0 2.0 0.00 0.12 0.09 62 1013.6
20260507143306 67 295 1.0 3.0 0.00 0.12 0.09 63 1013.6
20260507142806 67 298 2.0 3.0 0.00 0.12 0.09 62 1013.6
20260507142307 67 235 2.0 4.0 0.00 0.12 0.09 62 1013.7
20260507141810 68 296 3.0 4.0 0.00 0.12 0.09 62 1013.7
20260507141259 69 292 2.0 4.0 0.00 0.12 0.09 62 1013.8
20260507140754 69 298 1.0 7.0 0.00 0.12 0.09 60 1013.9
20260507140252 69 216 4.0 7.0 0.00 0.12 0.09 57 1013.9
20260507135248 68 272 4.0 7.0 0.00 0.12 0.09 59 1014.0
20260507133739 69 110 0.0 7.0 0.00 0.16 0.09 58 1014.2
20260507133241 70 221 4.0 7.0 0.00 0.16 0.09 56 1014.3
20260507132737 69 214 3.0 9.0 0.00 0.16 0.09 55 1014.3
20260507132242 70 231 4.0 9.0 0.00 0.16 0.09 57 1014.4
20260507131736 70 240 2.0 6.0 0.00 0.16 0.09 56 1014.5
20260507131236 70 159 3.0 6.0 0.00 0.16 0.09 56 1014.4
20260507130724 70 250 4.0 7.0 0.00 0.16 0.09 58 1014.5
20260507130225 70 172 4.0 10.0 0.00 0.16 0.09 57 1014.6
20260507125219 69 219 6.0 11.0 0.00 0.16 0.09 56 1014.7
20260507124212 68 199 6.0 14.0 0.00 0.16 0.09 57 1014.6
20260507123721 67 189 8.0 14.0 0.00 0.16 0.09 59 1014.6
20260507123208 67 210 4.0 12.0 0.00 0.16 0.09 59 1014.7
20260507122206 68 183 5.0 11.0 0.00 0.16 0.09 63 1014.6
20260507121706 68 137 6.0 11.0 0.00 0.16 0.09 64 1014.6
20260507120658 68 206 8.0 11.0 0.00 0.16 0.09 59 1014.5
20260507115646 68 206 6.0 12.0 0.00 0.16 0.09 63 1014.6
20260507115152 68 154 4.0 12.0 0.00 0.16 0.09 64 1014.6
20260507114641 68 118 5.0 10.0 0.00 0.16 0.09 60 1014.6
20260507114142 68 133 6.0 10.0 0.00 0.16 0.09 66 1014.7
20260507113645 68 141 6.0 7.0 0.00 0.16 0.09 66 1014.7
20260507113138 68 117 3.0 9.0 0.00 0.16 0.09 65 1014.7
20260507112637 68 209 5.0 9.0 0.00 0.16 0.09 63 1014.8
20260507112135 68 141 4.0 10.0 0.00 0.16 0.09 61 1014.8
20260507111644 67 210 5.0 10.0 0.00 0.16 0.09 64 1014.8
20260507111141 68 137 6.0 10.0 0.00 0.16 0.09 63 1014.8
20260507110142 67 234 4.0 11.0 0.00 0.16 0.09 67 1014.9
20260507105629 66 220 6.0 12.0 0.00 0.16 0.09 64 1014.9
20260507105130 66 243 4.0 12.0 0.00 0.16 0.09 63 1015.1
20260507104624 66 204 6.0 12.0 0.00 0.16 0.09 63 1015.1
20260507104123 67 188 5.0 12.0 0.00 0.16 0.09 69 1015.1
20260507103112 65 159 5.0 12.0 0.00 0.16 0.09 71 1015.2
20260507102611 65 196 9.0 12.0 0.00 0.16 0.09 67 1015.2
20260507102115 65 206 8.0 11.0 0.00 0.16 0.09 67 1015.2
20260507101613 65 207 6.0 12.0 0.00 0.16 0.09 70 1015.2
20260507101106 65 144 3.0 12.0 0.00 0.16 0.09 71 1015.3
20260507100058 65 206 4.0 9.0 0.00 0.16 0.09 76 1015.5
20260507095057 64 209 5.0 11.0 0.00 0.16 0.09 75 1015.3
20260507094537 64 210 5.0 11.0 0.00 0.16 0.09 79 1015.4
20260507094037 63 110 7.0 10.0 0.00 0.16 0.09 79 1015.3
20260507093533 64 144 5.0 7.0 0.00 0.16 0.09 78 1015.4
20260507092529 63 61 5.0 10.0 0.00 0.16 0.09 79 1015.4
20260507092020 63 140 4.0 9.0 0.00 0.16 0.09 79 1015.5
20260507091528 63 230 5.0 9.0 0.00 0.16 0.09 81 1015.5
20260507091025 62 235 4.0 7.0 0.00 0.16 0.09 82 1015.4
20260507090525 62 190 4.0 11.0 0.00 0.16 0.09 83 1015.5
20260507090007 61 210 5.0 11.0 0.00 0.16 0.09 82 1015.5
20260507084949 62 182 6.0 10.0 0.00 0.16 0.09 83 1015.6
20260507084442 61 137 4.0 11.0 0.00 0.16 0.09 84 1015.5
20260507083945 61 238 6.0 12.0 0.00 0.16 0.09 83 1015.6
20260507083439 61 233 5.0 12.0 0.00 0.16 0.09 83 1015.5
20260507082935 61 199 5.0 7.0 0.00 0.16 0.09 85 1015.6
20260507082434 60 133 4.0 7.0 0.00 0.16 0.09 85 1015.5
20260507081938 60 127 5.0 7.0 0.00 0.16 0.09 86 1015.5
20260507081433 60 203 5.0 7.0 0.00 0.16 0.09 87 1015.5
20260507080933 60 200 5.0 11.0 0.00 0.16 0.09 87 1015.5
20260507080432 59 207 5.0 11.0 0.00 0.16 0.09 86 1015.6
20260507075931 59 157 5.0 11.0 0.00 0.16 0.09 89 1015.7
20260507075432 59 130 4.0 7.0 0.00 0.16 0.09 90 1015.6
20260507074930 58 189 4.0 6.0 0.00 0.16 0.09 90 1015.6
20260507074432 58 176 4.0 6.0 0.00 0.16 0.09 90 1015.7
20260507073429 57 202 6.0 7.0 0.00 0.16 0.09 89 1015.6
20260507072931 57 162 3.0 5.0 0.00 0.16 0.09 90 1015.6
20260507071933 57 144 4.0 9.0 0.00 0.16 0.09 90 1015.6
20260507071429 57 131 5.0 9.0 0.00 0.16 0.09 91 1015.6
20260507070930 57 186 6.0 7.0 0.00 0.16 0.09 90 1015.5
20260507070430 57 204 4.0 9.0 0.00 0.16 0.09 93 1015.5
20260507065930 57 193 4.0 10.0 0.00 0.16 0.09 93 1015.5
20260507065429 56 55 4.0 10.0 0.00 0.16 0.09 93 1015.4
20260507064428 56 206 6.0 10.0 0.00 0.16 0.09 93 1015.4
20260507063929 56 178 6.0 7.0 0.00 0.16 0.09 93 1015.3
20260507062429 55 154 3.0 6.0 0.00 0.16 0.09 93 1015.3
20260507061928 55 183 3.0 6.0 0.00 0.16 0.09 93 1015.3
20260507061429 55 200 4.0 6.0 0.00 0.16 0.09 93 1015.2
20260507060928 55 214 3.0 6.0 0.00 0.16 0.09 93 1015.3
20260507060426 55 234 4.0 7.0 0.00 0.16 0.09 93 1015.3
20260507055928 55 113 5.0 7.0 0.00 0.16 0.09 93 1015.2
20260507055428 55 145 5.0 6.0 0.00 0.16 0.09 94 1015.3
20260507054927 54 183 4.0 6.0 0.00 0.16 0.09 94 1015.2
20260507054431 54 147 4.0 6.0 0.00 0.16 0.09 94 1015.3
20260507053927 54 172 4.0 9.0 0.00 0.16 0.09 94 1015.1
20260507053432 54 164 5.0 9.0 0.00 0.16 0.09 94 1015.1
20260507052928 54 185 4.0 6.0 0.00 0.16 0.09 94 1015.1
20260507052431 54 154 4.0 10.0 0.00 0.16 0.09 94 1014.9
20260507051915 54 185 4.0 10.0 0.00 0.16 0.09 94 1014.9
20260507051415 54 168 3.0 7.0 0.00 0.16 0.09 94 1014.9
20260507050905 54 157 3.0 9.0 0.00 0.16 0.09 94 1014.9
20260507050406 54 188 6.0 9.0 0.00 0.16 0.09 94 1014.9
20260507045904 54 221 2.0 7.0 0.00 0.16 0.09 94 1014.9
20260507045358 54 226 3.0 11.0 0.00 0.16 0.09 94 1014.7
20260507044856 53 113 5.0 11.0 0.00 0.16 0.09 94 1014.7
20260507044348 53 172 6.0 13.0 0.00 0.16 0.09 94 1014.6
20260507043848 53 124 6.0 13.0 0.00 0.16 0.09 94 1014.6
20260507043340 53 142 4.0 6.0 0.00 0.16 0.09 94 1014.6
20260507042847 54 145 4.0 9.0 0.00 0.16 0.09 94 1014.5
20260507042338 54 186 4.0 9.0 0.00 0.16 0.09 94 1014.5
20260507041836 54 216 2.0 10.0 0.00 0.16 0.09 94 1014.5
20260507041333 53 155 7.0 10.0 0.00 0.16 0.09 94 1014.3
20260507040837 53 188 6.0 10.0 0.00 0.16 0.09 94 1014.4
20260507040323 53 193 5.0 10.0 0.00 0.16 0.09 94 1014.3
20260507035813 53 149 5.0 10.0 0.00 0.16 0.09 94 1014.2
20260507035318 53 200 7.0 10.0 0.00 0.16 0.09 94 1014.2
20260507034758 54 209 5.0 9.0 0.00 0.16 0.09 94 1014.3
20260507034242 54 196 4.0 11.0 0.00 0.16 0.09 94 1014.2
20260507033739 54 185 5.0 11.0 0.00 0.16 0.09 94 1014.2
20260507033233 54 219 4.0 9.0 0.00 0.16 0.09 94 1014.2
20260507032735 54 192 6.0 9.0 0.00 0.16 0.09 94 1014.1
20260507032231 54 206 5.0 9.0 0.00 0.16 0.09 94 1014.2
20260507031730 54 183 4.0 9.0 0.00 0.16 0.09 94 1014.1
20260507025658 54 168 7.0 10.0 0.00 0.16 0.09 94 1014.1
20260507025157 54 162 5.0 10.0 0.00 0.16 0.09 94 1014.1
20260507024154 54 190 4.0 10.0 0.00 0.16 0.09 94 1014.2
20260507023648 54 162 5.0 10.0 0.00 0.16 0.09 94 1014.2
20260507023153 54 192 5.0 7.0 0.00 0.16 0.09 94 1014.1
20260507022636 54 172 3.0 7.0 0.00 0.16 0.09 94 1014.1
20260507021624 54 138 5.0 12.0 0.00 0.16 0.09 94 1014.0
20260507021138 54 137 5.0 12.0 0.00 0.16 0.09 94 1014.0
20260507020629 54 123 6.0 12.0 0.01 0.16 0.09 94 1014.0
20260507020123 54 159 6.0 12.0 0.01 0.16 0.09 94 1014.0
20260507015624 54 138 6.0 12.0 0.01 0.16 0.09 93 1014.0
20260507015123 54 192 6.0 11.0 0.01 0.17 0.09 93 1013.9
20260507014619 54 154 6.0 12.0 0.01 0.19 0.09 93 1014.0
20260507014119 54 148 7.0 12.0 0.01 0.20 0.09 93 1014.1
20260507013631 54 137 8.0 13.0 0.01 0.20 0.09 93 1014.0
20260507012601 54 144 7.0 12.0 0.03 0.20 0.09 93 1014.2
20260507012058 54 190 6.0 9.0 0.04 0.20 0.09 93 1014.2
20260507011555 54 196 3.0 9.0 0.05 0.20 0.09 93 1014.2
20260507011058 54 148 3.0 9.0 0.06 0.20 0.09 93 1014.2
20260507010550 54 257 4.0 7.0 0.05 0.20 0.09 93 1014.2
20260507010045 55 200 4.0 9.0 0.06 0.14 0.09 93 1014.2
20260507005527 55 203 6.0 10.0 0.06 0.14 0.09 93 1014.2
20260507005040 55 204 6.0 10.0 0.06 0.14 0.09 93 1014.0
20260507004536 55 147 4.0 7.0 0.06 0.14 0.09 93 1014.1
20260507003951 55 154 4.0 9.0 0.07 0.14 0.09 93 1014.0
20260507003446 55 141 5.0 9.0 0.07 0.14 0.09 93 1014.0
20260507002944 56 166 5.0 11.0 0.06 0.14 0.07 93 1014.0
20260507002438 56 173 6.0 11.0 0.05 0.14 0.06 93 1013.9
20260507001943 56 157 7.0 11.0 0.05 0.14 0.06 93 1014.0
20260507001444 56 151 5.0 9.0 0.04 0.14 0.05 93 1014.0
20260507000922 56 207 5.0 9.0 0.03 0.14 0.04 93 1014.1
20260507000428 56 195 4.0 9.0 0.02 0.14 0.03 93 1014.2
20260506235921 56 141 4.0 9.0 0.02 0.12 0.03 93 1014.2
20260506235414 56 189 3.0 6.0 0.02 0.12 0.03 93 1014.2
20260506234913 56 164 4.0 9.0 0.02 0.12 0.02 93 1014.1
20260506234403 56 162 4.0 11.0 0.02 0.12 0.02 93 1014.1
20260506233906 56 190 5.0 11.0 0.02 0.12 0.02 93 1014.1
20260506233355 56 157 5.0 12.0 0.02 0.12 0.02 93 1014.1
20260506232853 56 204 8.0 12.0 0.02 0.12 0.02 93 1014.0
20260506232355 57 209 8.0 12.0 0.01 0.12 0.01 93 1014.1
20260506231852 57 206 5.0 11.0 0.01 0.12 0.01 92 1014.1
20260506231350 57 149 6.0 13.0 0.01 0.12 0.01 92 1014.1
20260506230832 57 164 10.0 13.0 0.01 0.12 0.01 92 1014.0
20260506230330 57 203 6.0 13.0 0.01 0.12 0.01 92 1014.0
20260506225826 57 199 8.0 14.0 0.01 0.11 0.01 92 1014.1
20260506225329 57 197 10.0 15.0 0.01 0.11 0.01 92 1014.1
20260506224821 57 197 11.0 15.0 0.01 0.11 0.01 92 1014.2
20260506224323 57 199 10.0 16.0 0.00 0.11 0.00 92 1014.1
20260506223817 58 189 9.0 16.0 0.00 0.11 0.00 91 1014.3
20260506223315 58 203 9.0 14.0 0.00 0.11 0.00 91 1014.4
20260506222815 58 182 6.0 11.0 0.00 0.11 0.00 91 1014.4
20260506221816 58 212 5.0 9.0 0.00 0.11 0.00 91 1014.4
20260506221251 58 140 6.0 11.0 0.00 0.11 0.00 91 1014.4
20260506220748 58 199 7.0 15.0 0.00 0.11 0.00 91 1014.3
20260506220309 58 230 7.0 15.0 0.00 0.11 0.00 91 1014.2
20260506215734 58 209 9.0 12.0 0.00 0.11 0.11 91 1014.1
20260506215231 58 182 6.0 10.0 0.00 0.11 0.11 91 1014.3
20260506214236 58 190 3.0 11.0 0.00 0.11 0.11 91 1014.3
20260506213720 58 206 3.0 11.0 0.00 0.11 0.11 91 1014.3
20260506213219 58 202 7.0 15.0 0.00 0.11 0.11 91 1014.2
20260506212716 58 175 10.0 15.0 0.00 0.11 0.11 91 1014.2
20260506212223 58 213 9.0 15.0 0.00 0.11 0.11 91 1014.2
20260506211209 58 169 8.0 13.0 0.00 0.11 0.11 90 1014.3